This is the latest recevied weather packets stored in our database for station/object SP9KB-13. If no packets are shown the sender has not sent any weather packets the latest 10 day(s).
| Time | Temp. | Humidity | Pressure | Rain* | Wind** | Luminosity | Snow |
|---|---|---|---|---|---|---|---|
| 1777818957 | 21.67° C | 36% | 999.3 hPa | 0 mm | - | - | - |
| 1777818656 | 22.22° C | 32% | 999.6 hPa | 0 mm | - | - | - |
| 1777818355 | 22.22° C | 32% | 999.7 hPa | 0 mm | - | - | - |
| 1777818055 | 21.67° C | 33% | 999.8 hPa | 0 mm | - | - | - |
| 1777817754 | 21.67° C | 34% | 999.7 hPa | 0 mm | - | - | - |
| 1777817454 | 21.67° C | 32% | 999.8 hPa | 0 mm | - | - | - |
| 1777817153 | 22.22° C | 32% | 999.6 hPa | 0 mm | - | - | - |
| 1777816853 | 22.78° C | 33% | 999.8 hPa | 0 mm | - | - | - |
| 1777816552 | 22.78° C | 32% | 999.8 hPa | 0 mm | - | - | - |
| 1777816251 | 22.22° C | 35% | 999.9 hPa | 0 mm | - | - | - |
| 1777815951 | 21.67° C | 35% | 1000 hPa | 0 mm | - | - | - |
| 1777815650 | 22.22° C | 33% | 1000 hPa | 0 mm | - | - | - |
| 1777815350 | 22.22° C | 34% | 1000.3 hPa | 0 mm | - | - | - |
| 1777815049 | 22.22° C | 32% | 1000.1 hPa | 0 mm | - | - | - |
| 1777814749 | 22.22° C | 33% | 1000.2 hPa | 0 mm | - | - | - |
| 1777814448 | 22.22° C | 32% | 1000.2 hPa | 0 mm | - | - | - |
| 1777814148 | 21.67° C | 33% | 1000.2 hPa | 0 mm | - | - | - |
| 1777813847 | 22.22° C | 32% | 1000.3 hPa | 0 mm | - | - | - |
| 1777813547 | 21.67° C | 33% | 1000.4 hPa | 0 mm | - | - | - |
| 1777813245 | 21.67° C | 34% | 1000.4 hPa | 0 mm | - | - | - |
| 1777812944 | 22.22° C | 33% | 1000.5 hPa | 0 mm | - | - | - |
| 1777812644 | 22.22° C | 32% | 1000.5 hPa | 0 mm | - | - | - |
| 1777812343 | 21.67° C | 33% | 1000.6 hPa | 0 mm | - | - | - |
| 1777812043 | 21.67° C | 35% | 1000.6 hPa | 0 mm | - | - | - |
| 1777811742 | 21.67° C | 33% | 1000.7 hPa | 0 mm | - | - | - |
* Rain latest hour (hover to see other rain measurements)
** Current wind speed in m/s (hover to see current wind gust speed)